Tracking 19246 objects as of 21-Sep-2018
HD Live streaming from Space Station
objects crossing your sky now

FENGYUN 1C DEB

Track FENGYUN 1C DEB now!
10-day predictions


NORAD ID: 30680
Int'l Code: 1999-025AQN
Perigee: 846.1 km
Apogee: 1,384.6 km
Inclination: 99.5 °
Period: 107.4 minutes
Semi major axis: 7486 km
RCS: 0.0144 m2 (small)
Launch date: May 10, 1999
Source: People's Republic of China (PRC)
Launch site: Taiyaun Space Center, China (TSC)

Note: This is SATELLITE DEBRIS
aabbcc
Your satellite tracking list
Your tracking list is empty




NASA's NSSDC Master Catalog

Two Line Element Set (TLE):
1 30680U 99025AQN 18263.29600528  .00000377  00000-0  52677-3 0  9991
2 30680  99.5472  32.8091 0359678 232.9597 123.8131 13.40283569568226
Source of the keplerian elements: AFSPC